Hourly Data Report for July 31, 2017

PITT MEADOWS CS
BRITISH COLUMBIA

49°12'29.964" N
122°41'24.076" W
5.00 m
1106178
71775
WMM

Download Data

Hourly Data (July 2017)
Hourly Data Report for July 31, 2017
TIME
LST
Temp Definition
°C
Dew Point Definition
°C
Rel Hum Definition
%
Precip. Amount Definition
mm

Wind Dir Definition
10's deg

Wind Spd Definition
km/h
Visibility Definition
km
Stn Press Definition
kPa
Hmdx Definition


Wind Chill Definition


Weather Definition


00:00 16.1 13.0 82 0.0 8 2   102.40     LegendNANA
01:00 15.7 12.6 82 0.0 14 1   102.42     LegendNANA
02:00 14.8 12.1 84 0.0   0   102.45     LegendNANA
03:00 13.9 12.0 88 0.0   0   102.45     LegendNANA
04:00 13.6 11.8 89 0.0 13 2   102.47     LegendNANA
05:00 13.3 11.4 89 0.0 11 3   102.49     LegendNANA
06:00 15.7 12.3 80 0.0 12 3   102.52     LegendNANA
07:00 17.6 12.0 70 0.0 14 1   102.55     LegendNANA
08:00 19.1 10.3 57 0.0 17 3   102.53     LegendNANA
09:00 21.2 11.8 55 0.0 24 3   102.51     LegendNANA
10:00 23.3 11.3 47 0.0 22 5   102.46 25   LegendNANA
11:00 24.9 11.8 44 0.0 25 9   102.40 27   LegendNANA
12:00 25.6 12.3 43 0.0 25 10   102.35 28   LegendNANA
13:00 26.7 13.5 44 0.0 26 13   102.29 30   LegendNANA
14:00 28.1 12.7 39 0.0 26 12   102.24 31   LegendNANA
15:00 28.8 13.1 38 0.0 27 11   102.16 32   LegendNANA
16:00 28.8 11.3 34 0.0 27 12   102.10 31   LegendNANA
17:00 28.3 10.8 34 0.0 27 10   102.06 30   LegendNANA
18:00 27.4 11.6 37 0.0 25 8   102.03 29   LegendNANA
19:00 25.9 11.2 40 0.0 18 5   102.03 28   LegendNANA
20:00 23.1 12.3 51 0.0 15 5   102.03 26   LegendNANA
21:00 21.0 13.4 62 0.0 15 3   102.05     LegendNANA
22:00 19.2 13.8 71 0.0 10 4   102.04     LegendNANA
23:00 17.3 13.4 77 0.0 23 2   102.05     LegendNANA

Notes on Data Quality.

Legend

  • E = Estimated
  • M = Missing
  • NA = Not Available*
  • [empty] = Indicates an unobserved value
Date modified: